Location: Hylvaty SDH
(49.9612°N, 16.4057°E)
Time: 01:02:41
(UTC+02:00)

Transit 2A - Visible Passes

Search period start: 12 August 2020 00:00
Search period end: 22 August 2020 00:00
Orbit: 591 x 967 km, 66.7° (Epoch: 11 August)

Date Brightness Start Highest point End Pass type
(mag) Time Alt. Az. Time Alt. Az. Time Alt. Az.
12 Aug 9.1 00:01:26 10° WNW 00:05:54 20° NNW 00:10:27 10° NNE visible
12 Aug 9.2 01:47:18 10° NNW 01:51:37 18° N 01:55:55 10° NE visible
12 Aug 8.2 03:31:01 10° NNW 03:36:51 35° NE 03:42:28 10° E visible
12 Aug 7.4 21:40:41 10° WSW 21:46:32 52° NW 21:52:47 10° NNE visible
12 Aug 8.9 23:26:35 10° WNW 23:31:19 22° NNW 23:36:09 10° NNE visible
13 Aug 9.2 01:12:50 10° NW 01:16:59 18° N 01:21:08 10° NE visible
13 Aug 8.5 02:56:51 10° NNW 03:02:24 29° NNE 03:07:46 10° E visible
13 Aug 6.5 04:40:06 10° NW 04:46:34 87° ENE 04:52:38 10° SE visible
13 Aug 6.9 21:06:18 10° SW 21:12:15 66° NW 21:18:37 10° NE visible
13 Aug 8.8 22:51:45 10° WNW 22:56:45 25° NNW 23:01:55 10° NNE visible
14 Aug 9.2 00:38:15 10° NW 00:42:20 17° N 00:46:26 10° NE visible
14 Aug 8.7 02:22:40 10° NNW 02:27:53 25° NNE 02:33:00 10° E visible
14 Aug 6.8 04:05:56 10° NW 04:12:20 68° NE 04:18:24 10° SE visible
14 Aug 8.6 22:16:59 10° W 22:22:15 28° NNW 22:27:43 10° NNE visible
15 Aug 9.2 00:03:34 10° NW 00:07:41 17° N 00:11:50 10° NE visible
15 Aug 8.9 01:48:26 10° NNW 01:53:20 22° NNE 01:58:10 10° ENE visible
15 Aug 7.2 03:31:46 10° NNW 03:38:03 54° NE 03:44:02 10° ESE visible
15 Aug 8.3 21:42:17 10° W 21:47:47 33° NW 21:53:32 10° NNE visible
15 Aug 9.2 23:28:48 10° NW 23:33:03 18° N 23:37:20 10° NNE visible
16 Aug 9.0 01:14:09 10° NNW 01:18:45 20° NNE 01:23:19 10° ENE visible
16 Aug 7.6 02:57:37 10° NNW 03:03:44 44° NE 03:09:33 10° ESE visible
16 Aug 6.5 04:41:04 10° NW 04:47:13 53° WSW 04:52:59 10° SSE visible
16 Aug 8.0 21:07:39 10° WSW 21:13:22 40° NW 21:19:23 10° NNE visible
16 Aug 9.1 22:53:59 10° WNW 22:58:25 19° NNW 23:02:56 10° NNE visible
17 Aug 9.1 00:39:47 10° NNW 00:44:09 19° NNE 00:48:28 10° NE visible
17 Aug 8.0 02:23:28 10° NNW 02:29:20 36° NE 02:34:58 10° ESE visible
17 Aug 6.3 04:06:48 10° NW 04:13:09 70° WSW 04:19:05 10° SSE visible
17 Aug 7.6 20:33:08 10° WSW 20:39:01 50° NW 20:45:14 10° NNE visible
17 Aug 9.0 22:19:08 10° WNW 22:23:50 21° NNW 22:28:38 10° NNE visible
18 Aug 9.1 00:05:20 10° NW 00:09:31 18° N 00:13:41 10° NE visible
18 Aug 8.2 01:49:18 10° NNW 01:54:54 30° NNE 02:00:18 10° E visible
18 Aug 6.4 03:32:34 10° NW 03:39:00 89° SW 03:45:01 10° SE visible
18 Aug 8.8 21:44:18 10° WNW 21:49:16 24° NNW 21:54:22 10° NNE visible
18 Aug 9.1 23:30:47 10° NW 23:34:52 17° N 23:38:57 10° NE visible
19 Aug 8.5 01:15:07 10° NNW 01:20:24 26° NNE 01:25:32 10° E visible
19 Aug 6.6 02:58:23 10° NW 03:04:48 72° NE 03:10:49 10° SE visible
19 Aug 7.2 04:42:23 10° NW 04:47:33 27° WSW 04:52:28 10° SSW visible
19 Aug 8.6 21:09:30 10° W 21:14:45 28° NNW 21:20:10 10° NNE visible
19 Aug 9.1 22:56:07 10° NW 23:00:13 17° N 23:04:20 10° NE visible
20 Aug 8.6 00:40:54 10° NNW 00:45:52 23° NNE 00:50:43 10° ENE visible
20 Aug 7.0 02:24:13 10° NNW 02:30:31 57° NE 02:36:29 10° SE visible
20 Aug 6.9 04:07:55 10° NW 04:13:37 37° WSW 04:18:59 10° S visible
20 Aug 8.4 20:34:46 10° W 20:40:16 32° NNW 20:46:00 10° NNE visible
20 Aug 9.0 22:21:21 10° NW 22:25:35 18° N 22:29:50 10° NNE visible
21 Aug 8.8 00:06:37 10° NNW 00:11:17 20° NNE 00:15:52 10° ENE visible
21 Aug 7.4 01:50:04 10° NNW 01:56:12 45° NE 02:02:01 10° ESE visible
21 Aug 6.5 03:33:33 10° NW 03:39:37 49° WSW 03:44:09 16° S visible
21 Aug 9.0 21:46:32 10° WNW 21:50:57 19° NNW 21:55:25 10° NNE visible
21 Aug 8.9 23:32:17 10° NNW 23:36:40 19° NNE 23:41:02 10° NE visible
